2023/08/08 00:00:00, 0.0,25.9
2023/08/08 00:10:00, 0.0,25.8
2023/08/08 00:20:00, 0.0,25.6
2023/08/08 00:30:00, 0.0,25.3
2023/08/08 00:40:00, 0.0,25.7
2023/08/08 00:50:00, 0.0,25.3
2023/08/08 01:00:00, 0.0,25.4
2023/08/08 01:10:00, 0.0,25.5
2023/08/08 01:20:00, 0.0,25.8
2023/08/08 01:30:00, 0.0,25.4
2023/08/08 01:40:00, 0.0,25.2
2023/08/08 01:50:00, 0.0,25.5
2023/08/08 02:00:00, 0.0,25.0
2023/08/08 02:10:00, 0.0,25.1
2023/08/08 02:20:00, 0.0,25.1
2023/08/08 02:30:00, 0.0,24.7
2023/08/08 02:40:00, 0.0,24.7
2023/08/08 02:50:00, 0.0,24.7
2023/08/08 03:00:00, 0.0,24.3
2023/08/08 03:10:00, 0.0,24.3
2023/08/08 03:20:00, 0.0,24.1
2023/08/08 03:30:00, 0.0,24.4
2023/08/08 03:40:00, 0.0,23.7
2023/08/08 03:50:00, 0.0,24.2
2023/08/08 04:00:00, 0.0,24.0
2023/08/08 04:10:00, 0.0,24.1
2023/08/08 04:20:00, 0.0,24.2
2023/08/08 04:30:00, 0.0,24.0
2023/08/08 04:40:00, 0.0,24.0
2023/08/08 04:50:00, 0.0,24.0
2023/08/08 05:00:00, 0.0,24.1
2023/08/08 05:10:00, 0.0,23.9
2023/08/08 05:20:00, 0.0,23.6
2023/08/08 05:30:00, 0.0,24.3
2023/08/08 05:40:00, 0.0,24.1
2023/08/08 05:50:00, 0.0,24.5
2023/08/08 06:00:00, 0.0,24.7
2023/08/08 06:10:00, 0.0,25.2
2023/08/08 06:20:00, 0.0,27.9
2023/08/08 06:30:00, 0.0,28.4
2023/08/08 06:40:00, 0.0,31.8
2023/08/08 06:50:00, 0.0,33.2
2023/08/08 07:00:00, 0.0,34.8
2023/08/08 07:10:00, 0.0,34.6
2023/08/08 07:20:00, 0.0,35.1
2023/08/08 07:30:00, 0.0,34.9
2023/08/08 07:40:00, 0.0,34.4
2023/08/08 07:50:00, 0.0,32.9
2023/08/08 08:00:00, 0.0,33.6
2023/08/08 08:10:00, 0.0,32.7
2023/08/08 08:20:00, 0.0,32.6
2023/08/08 08:30:00, 0.0,32.1
2023/08/08 08:40:00, 0.0,31.7
2023/08/08 08:50:00, 0.0,32.2
2023/08/08 09:00:00, 0.0,31.5
2023/08/08 09:10:00, 0.0,32.1
2023/08/08 09:20:00, 0.2,31.9
2023/08/08 09:30:00, 0.1,31.5
2023/08/08 09:40:00, 0.1,32.1
2023/08/08 09:50:00, 0.1,32.2
2023/08/08 10:00:00, 0.3,33.0
2023/08/08 10:10:00, 0.1,33.0
2023/08/08 10:20:00, 0.7,33.3
2023/08/08 10:30:00, 0.4,32.2
